This demonstration page uses our WeatherBlox Daily Observations layout. Learn more.

Left ArrowRight Arrow

44.8408, -93.29828

Hourly Observations for July 18, 2016

Temp ( °F °C ) Dew Point ( °F °C ) Humidity (%) Winds ( mph kmh ) Pressure ( in mb ) Visibility ( mi km ) Precip ( " mm )
12:53 am 00:53 Clear 72 22.2 62 16.7 71 71 W 8 13 30.04 1017 10 16 0.00 0.00
1:53 am 01:53 Clear 70 21.1 62 16.7 76 76 W 8 13 30.05 1018 10 16 0.00 0.00
2:53 am 02:53 Clear 68 20 61 16.1 78 78 WNW 3 6 30.04 1017 10 16 0.00 0.00
3:53 am 03:53 Clear 67 19.4 61 16.1 81 81 W 3 6 30.04 1017 10 16 0.00 0.00
4:53 am 04:53 Clear 68 20 61 16.1 78 78 Calm 30.05 1018 10 16 0.00 0.00
5:53 am 05:53 Sunny 67 19.4 60 15.6 79 79 SSW 3 6 30.09 1019 10 16 0.00 0.00
6:53 am 06:53 Partly Cloudy 68 20 62 16.7 81 81 WNW 3 6 30.13 1020 10 16 0.00 0.00
7:53 am 07:53 Mostly Sunny 72 22.2 61 16.1 68 68 Calm 30.15 1021 10 16 0.00 0.00
8:53 am 08:53 Mostly Sunny 73 22.8 62 16.7 69 69 SSW 3 6 30.17 1022 10 16 0.00 0.00
9:53 am 09:53 Mostly Sunny 76 24.4 61 16.1 60 60 SSW 5 7 30.18 1022 10 16 0.00 0.00
10:53 am 10:53 Sunny 80 26.7 58 14.4 47 47 Calm 30.17 1022 10 16 0.00 0.00
11:53 am 11:53 Mostly Sunny 82 27.8 60 15.6 47 47 VRB 3 6 30.18 1022 10 16 0.00 0.00
12:53 pm 12:53 Mostly Sunny 83 28.3 57 13.9 41 41 W 6 9 30.16 1021 10 16 0.00 0.00
1:53 pm 13:53 Partly Cloudy 85 29.4 57 13.9 39 39 VRB 5 7 30.16 1021 10 16 0.00 0.00
2:53 pm 14:53 Mostly Sunny 85 29.4 57 13.9 39 39 SSW 3 6 30.15 1021 10 16 0.00 0.00
3:53 pm 15:53 Mostly Sunny 87 30.6 58 14.4 37 37 VRB 3 6 30.14 1021 10 16 0.00 0.00
3:57 pm 15:57 Mostly Sunny 87 30.6 58 14.4 37 37 W 8 13 30.09 1019 10 16 0.00 0.00
4:53 pm 16:53 Mostly Sunny 86 30 58 14.4 39 39 NW 10 17 30.13 1020 10 16 0.00 0.00
5:53 pm 17:53 Mostly Sunny 86 30 55 12.8 35 35 NNW 7 11 30.13 1020 10 16 0.00 0.00
6:53 pm 18:53 Mostly Sunny 84 28.9 56 13.3 38 38 N 6 9 30.12 1020 10 16 0.00 0.00
7:53 pm 19:53 Mostly Sunny 83 28.3 57 13.9 41 41 NNW 3 6 30.12 1020 10 16 0.00 0.00
8:53 pm 20:53 Sunny 79 26.1 60 15.6 52 52 NW 6 9 30.14 1021 10 16 0.00 0.00
9:53 pm 21:53 Clear 79 26.1 60 15.6 52 52 NW 5 7 30.15 1021 10 16 0.00 0.00
10:53 pm 22:53 Clear 77 25 61 16.1 58 58 NW 3 6 30.17 1022 10 16 0.00 0.00
11:53 pm 23:53 Clear 74 23.3 61 16.1 64 64 S 3 6 30.17 1022 10 16 0.00 0.00

Powered by AerisWeather